World > North America > United States > New Jersey

Woodbine, New Jersey Regional Weather

Lat: 39.23N, Lon: 74.81W
Wx Zone: NJZ023
Feedback

Woodbine, NJ Regional Weather

Expires:201910181200;;889606
ASUS41 KPHI 181112
RWRPHI

REGIONAL WEATHER ROUNDUP
NATIONAL WEATHER SERVICE MOUNT HOLLY NJ
700 AM EDT FRI OCT 18 2019

NOTE:  "FAIR" INDICATES FEW OR NO CLOUDS BELOW 12,000 FEET WITH NO
SIGNIFICANT WEATHER AND/OR OBSTRUCTIONS TO VISIBILITY.

 * = STATION DOES NOT REPORT PRECIPITATION (E.G. RAIN, SNOW, ETC.) 
        OR FOG.


NJZ015>026-181200-
SOUTHERN NEW JERSEY
  
CITY           SKY/WX    TMP DP  RH WIND       PRES   REMARKS
POMONA         FAIR      48  38  68 W9        29.82R                  
MILLVILLE      FAIR      46  38  73 W8        29.83R                  
WRIGHTSTOWN    FAIR      46  39  76 W6        29.79R                  
MOUNT HOLLY    FAIR      48  38  68 W5        29.81R                  
TRENTON        FAIR      49  39  68 W7        29.79R                  

$$

SKY/WX - Weather  TMP - Temperature  DP - Dew Point  RH - Relative Humidity
WIND - Wind Direction/Speed PRES - Barometric Pressure VSB - Visibility
WCI - Wind Chill Index E13G22 Wind - East Wind 13 mph/Gusts of 22 mph